Satellite-Ground Cal/Val Site Overpasses Predictions

Prediction of Satellite NPP Overpassing Cal/Val Site: Antarctic Dome C

Ground Cal/Val Site Location: Latitude: -75.10, Longitude: 123.35; Satellite-Ground Site NADIR distance within 100 km.

Table of predicted overpasses for the next 14.0 days since TLE Epoch: 3/12/2016
Interval Starting Time Ending Time Minimum Distance Time Minimum Distance (km)
1 03/12/2016 07:32:28 03/12/2016 07:32:58 03/12/2016 07:32:43 1.17
2 03/15/2016 14:55:53 03/15/2016 14:56:22 03/15/2016 14:56:07 17.41
3 03/16/2016 14:37:11 03/16/2016 14:37:23 03/16/2016 14:37:17 89.58
4 03/17/2016 07:38:42 03/17/2016 07:39:09 03/17/2016 07:38:55 35.14
5 03/18/2016 07:19:55 03/18/2016 07:20:14 03/18/2016 07:20:04 75.09
6 03/20/2016 15:02:07 03/20/2016 15:02:31 03/20/2016 15:02:19 54.09
7 03/21/2016 14:43:17 03/21/2016 14:43:41 03/21/2016 14:43:29 54.95
8 03/22/2016 07:44:56 03/22/2016 07:45:17 03/22/2016 07:45:06 70.17
9 03/23/2016 07:26:03 03/23/2016 07:26:30 03/23/2016 07:26:16 38.04
